Weather History for Dayton Wright, OH

Change the Weather History Date:

Thursday, June 27, 2013

  Actual Average (KFFO) Record (KFFO)
Temperature  
Mean Temperature 76 °F -  
Max Temperature 86 °F 81 °F 93 °F (2005)
Min Temperature 68 °F 60 °F 50 °F (2004)
Cooling Degree Days 11    
Growing Degree Days 26 (Base 50)    
Moisture  
Dew Point 67 °F    
Average Humidity 83    
Maximum Humidity 96    
Minimum Humidity 53    
Precipitation  
Precipitation 0.09 in - - ()
Sea Level Pressure  
Sea Level Pressure 29.76 in    
Wind  
Wind Speed 6 mph (WSW)    
Max Wind Speed 14 mph    
Max Gust Speed 20 mph    
Visibility 7 miles    
Events Rain    
Averages and records for this station are not official NWS values.
T = Trace of Precipitation, MM = Missing Value Source: NWS Daily Summary

Daily Weather History Graph

Daily Weather History Graph

Search for Another Location

Airport:

Trip Planner

Search our weather history database for the weather conditions in past years. The results will help you decide how hot, cold, wet, or windy it might be!

Date:

Astronomy

Jun. 27, 2013 Rise Set
Actual Time 6:11 AM EDT 9:08 PM EDT
Civil Twilight 5:38 AM EDT 9:41 PM EDT
Nautical Twilight 4:57 AM EDT 10:22 PM EDT
Astronomical Twilight 4:10 AM EDT 11:09 PM EDT
Moon No Moon Rise 11:10 AM EDT (6/27)
Length of Visible Light 16h 02m
Length of Day
14h 57m
Waning Gibbous, 76% of the Moon is Illuminated
Jun 27
Waning Gibbous
Jun 30
Last Quarter
Jul 8
New
Jul 15
First Quarter
Jul 22
Full

Hourly Weather History & Observations

Time (EDT) Temp. Heat Index Dew Point Humidity Pressure Visibility Wind Dir Wind Speed Gust Speed Precip Events Conditions
12:34 AM 69.8 °F - 66.2 °F 88% 29.81 in 6.0 mi South 4.6 mph - N/A   Overcast
12:53 AM 69.1 °F - 66.9 °F 93% 29.78 in 3.0 mi South 6.9 mph - 0.04 in Rain Heavy Rain
1:01 AM 69.8 °F - 66.2 °F 88% 29.79 in 2.5 mi South 5.8 mph - 0.04 in Rain Heavy Rain
1:06 AM 69.8 °F - 66.2 °F 88% 29.79 in 3.0 mi South 3.5 mph - 0.04 in Rain Light Rain
1:14 AM 69.8 °F - 66.2 °F 88% 29.79 in 4.0 mi SSE 6.9 mph - 0.04 in Rain Light Rain
1:40 AM 68.0 °F - 66.2 °F 94% 29.78 in 7.0 mi South 4.6 mph - 0.04 in   Overcast
1:53 AM 68.0 °F - 66.9 °F 96% 29.77 in 7.0 mi South 4.6 mph - 0.04 in   Overcast
2:29 AM 68.0 °F - 66.2 °F 94% 29.79 in 8.0 mi SSW 3.5 mph - N/A   Overcast
2:53 AM 68.0 °F - 66.0 °F 93% 29.76 in 8.0 mi SSW 5.8 mph - N/A   Overcast
3:25 AM 68.0 °F - 66.2 °F 94% 29.78 in 7.0 mi SW 4.6 mph - N/A   Overcast
3:53 AM 68.0 °F - 66.0 °F 93% 29.75 in 6.0 mi SW 4.6 mph - N/A   Overcast
4:53 AM 68.0 °F - 66.0 °F 93% 29.75 in 5.0 mi SSW 4.6 mph - N/A   Overcast
5:26 AM 68.0 °F - 66.2 °F 94% 29.77 in 4.0 mi SSW 4.6 mph - N/A   Overcast
5:53 AM 68.0 °F - 66.9 °F 96% 29.75 in 4.0 mi SSW 8.1 mph - N/A   Overcast
6:53 AM 68.0 °F - 66.9 °F 96% 29.76 in 3.0 mi WSW 4.6 mph - N/A   Overcast
7:36 AM 68.0 °F - 66.2 °F 94% 29.78 in 2.5 mi WSW 9.2 mph - N/A   Overcast
7:53 AM 68.0 °F - 66.9 °F 96% 29.77 in 2.0 mi WSW 8.1 mph - N/A   Overcast
8:42 AM 69.8 °F - 68.0 °F 94% 29.78 in 4.0 mi West 5.8 mph - N/A   Overcast
8:53 AM 70.0 °F - 68.0 °F 93% 29.76 in 5.0 mi West 5.8 mph - N/A   Overcast
9:34 AM 71.6 °F - 68.0 °F 88% 29.78 in 9.0 mi West 5.8 mph - N/A   Overcast
9:53 AM 71.1 °F - 69.1 °F 93% 29.77 in 10.0 mi West 6.9 mph - N/A   Overcast
10:30 AM 71.6 °F - 68.0 °F 88% 29.78 in 9.0 mi West 8.1 mph - N/A   Overcast
10:53 AM 73.0 °F - 69.1 °F 87% 29.76 in 10.0 mi West 6.9 mph - N/A   Overcast
11:49 AM 75.2 °F - 69.8 °F 83% 29.79 in 10.0 mi WNW 6.9 mph - N/A   Overcast
11:53 AM 75.0 °F - 68.0 °F 79% 29.76 in 10.0 mi West 3.5 mph - N/A   Overcast
12:31 PM 78.8 °F - 69.8 °F 74% 29.78 in 10.0 mi Variable 5.8 mph - 0.01 in   Scattered Clouds
12:53 PM 77.0 °F - 69.1 °F 76% 29.76 in 10.0 mi WNW 6.9 mph - 0.01 in   Mostly Cloudy
1:53 PM 81.0 °F 84.4 °F 70.0 °F 69% 29.76 in 10.0 mi WNW 5.8 mph - N/A   Scattered Clouds
2:53 PM 82.0 °F 85.5 °F 69.1 °F 65% 29.75 in 10.0 mi West 9.2 mph - N/A   Mostly Cloudy
3:53 PM 84.9 °F 87.1 °F 66.0 °F 53% 29.74 in 10.0 mi WNW 10.4 mph 19.6 mph N/A   Scattered Clouds
4:53 PM 84.9 °F 87.6 °F 66.9 °F 55% 29.73 in 10.0 mi WNW 13.8 mph - N/A   Scattered Clouds
5:53 PM 84.9 °F 88.2 °F 68.0 °F 57% 29.71 in 10.0 mi West 10.4 mph 19.6 mph N/A   Partly Cloudy
6:53 PM 82.0 °F 84.5 °F 66.9 °F 60% 29.72 in 10.0 mi West 8.1 mph - N/A   Clear
7:53 PM 81.0 °F 83.8 °F 68.0 °F 65% 29.73 in 10.0 mi WNW 6.9 mph - N/A   Clear
8:53 PM 79.0 °F - 68.0 °F 69% 29.72 in 10.0 mi West 3.5 mph - N/A   Partly Cloudy
9:53 PM 77.0 °F - 68.0 °F 74% 29.70 in 10.0 mi WSW 4.6 mph - N/A   Clear
10:53 PM 77.0 °F - 68.0 °F 74% 29.70 in 10.0 mi Calm Calm - N/A   Clear
11:53 PM 72.0 °F - 66.9 °F 84% 29.68 in 10.0 mi SSW 5.8 mph - N/A   Clear